FW6744 Weather Reports


Display with metric or nautical units.
time (UTC)temp
F
wind
direction
speed
MPH
gust
MPH
rain 1hr
in
rain 24hr
in
rain mn
in
humidity
%
barometer
mb
20260901152441 88 78 0.0 4.0 0.00 0.00 0.00 67 1013.6
20260901152155 88 134 0.0 2.0 0.00 0.00 0.00 68 1013.6
20260901151429 87 105 1.0 6.0 0.00 0.00 0.00 69 1013.6
20260901150923 87 133 1.0 6.0 0.00 0.00 0.00 70 1013.6
20260901150417 87 210 1.0 4.0 0.00 0.00 0.00 72 1013.6
20260901145911 86 177 1.0 4.0 0.00 0.00 0.00 72 1013.7
20260901145405 86 172 0.0 2.0 0.00 0.00 0.00 74 1013.7
20260901144859 85 217 1.0 6.0 0.00 0.00 0.00 76 1013.8
20260901144352 85 198 1.0 6.0 0.00 0.00 0.00 76 1013.8
20260901144107 85 182 0.0 3.0 0.00 0.00 0.00 77 1013.9
20260901143340 84 134 0.0 3.0 0.00 0.00 0.00 77 1013.9
20260901143102 84 208 0.0 3.0 0.00 0.00 0.00 78 1013.9
20260901142337 84 207 0.0 3.0 0.00 0.00 0.00 78 1013.8
20260901142058 83 176 0.0 1.0 0.00 0.00 0.00 79 1013.8
20260901141333 83 118 0.0 1.0 0.00 0.00 0.00 79 1013.8
20260901140832 83 90 0.0 3.0 0.00 0.00 0.00 79 1013.8
20260901140332 83 89 1.0 6.0 0.00 0.00 0.00 79 1013.8
20260901135832 82 107 1.0 6.0 0.00 0.00 0.00 79 1013.8
20260901135332 82 77 0.0 2.0 0.00 0.00 0.00 80 1013.8
20260901134831 82 206 0.0 3.0 0.00 0.00 0.00 80 1013.8
20260901134332 82 177 0.0 3.0 0.00 0.00 0.00 81 1013.8
20260901133831 81 171 0.0 2.0 0.00 0.00 0.00 82 1013.8
20260901133554 81 72 0.0 2.0 0.00 0.00 0.00 82 1013.8
20260901132827 81 169 0.0 2.0 0.00 0.00 0.00 83 1013.7
20260901132326 80 234 0.0 4.0 0.00 0.00 0.00 84 1013.7
20260901132050 80 94 0.0 4.0 0.00 0.00 0.00 86 1013.7
20260901131325 79 225 0.0 1.0 0.00 0.00 0.00 88 1013.8
20260901130825 79 225 0.0 1.0 0.00 0.00 0.00 89 1013.9
20260901130326 79 225 0.0 1.0 0.00 0.00 0.00 90 1013.9
20260901125826 78 225 0.0 2.0 0.00 0.00 0.00 90 1013.9
20260901125326 78 225 0.0 2.0 0.00 0.00 0.00 91 1013.9
20260901124826 77 212 0.0 0.0 0.00 0.00 0.00 92 1013.9
20260901124555 77 212 0.0 1.0 0.00 0.00 0.00 93 1013.9
20260901123826 76 212 0.0 1.0 0.00 0.00 0.00 94 1013.9
20260901123325 76 208 0.0 1.0 0.00 0.00 0.00 94 1013.9
20260901122825 76 208 0.0 0.0 0.00 0.00 0.00 94 1013.9
20260901122326 75 208 0.0 0.0 0.00 0.00 0.00 94 1013.9
20260901122314 75 208 0.0 0.0 0.00 0.00 0.00 94 1013.9
20260901121326 75 208 0.0 0.0 0.00 0.00 0.00 94 1013.9
20260901120826 75 208 0.0 0.0 0.00 0.00 0.00 94 1013.9
20260901120329 75 208 0.0 0.0 0.00 0.00 0.00 94 1014.0
20260901115822 75 208 0.0 0.0 0.00 0.00 0.00 94 1013.9
20260901115539 74 208 0.0 0.0 0.00 0.00 0.00 94 1013.9
20260901114811 74 208 0.0 0.0 0.00 0.00 0.00 94 1013.9
20260901114305 74 208 0.0 0.0 0.00 0.00 0.00 94 1013.8
20260901113758 74 208 0.0 0.0 0.00 0.00 0.00 94 1013.8
20260901113257 74 208 0.0 0.0 0.00 0.00 0.00 94 1013.7
20260901113236 74 208 0.0 0.0 0.00 0.00 0.00 94 1013.6
20260901112253 74 208 0.0 0.0 0.00 0.00 0.00 93 1013.5
20260901111755 74 208 0.0 0.0 0.00 0.00 0.00 93 1013.5
20260901111515 74 208 0.0 0.0 0.00 0.00 0.00 93 1013.5
20260901110751 74 208 0.0 0.0 0.00 0.00 0.00 93 1013.5
20260901110248 74 208 0.0 0.0 0.00 0.00 0.00 93 1013.4
20260901105746 74 208 0.0 0.0 0.00 0.00 0.00 93 1013.3
20260901105244 75 208 0.0 0.0 0.00 0.00 0.00 93 1013.4
20260901104741 75 208 0.0 1.0 0.00 0.00 0.00 93 1013.2
20260901104240 75 208 0.0 1.0 0.00 0.00 0.00 93 1013.2
20260901103739 75 209 0.0 1.0 0.00 0.00 0.00 94 1013.2
20260901103235 74 209 0.0 1.0 0.00 0.00 0.00 94 1013.2
20260901102958 74 146 0.0 0.0 0.00 0.00 0.00 94 1013.2
20260901102234 74 146 0.0 1.0 0.00 0.00 0.00 94 1013.2
20260901101734 74 146 0.0 1.0 0.00 0.00 0.00 95 1013.2
20260901101235 74 35 0.0 1.0 0.00 0.00 0.00 95 1013.3
20260901100734 74 35 0.0 1.0 0.00 0.00 0.00 95 1013.3
20260901100454 74 32 0.0 0.0 0.00 0.00 0.00 95 1013.4
20260901095730 73 31 0.0 0.0 0.00 0.00 0.00 95 1013.4
20260901095229 73 31 0.0 0.0 0.00 0.00 0.00 95 1013.3
20260901094950 73 30 0.0 0.0 0.00 0.00 0.00 95 1013.3
20260901094218 73 30 0.0 0.0 0.00 0.00 0.00 95 1013.2
20260901093711 73 30 0.0 0.0 0.00 0.00 0.00 95 1013.2
20260901093206 73 31 0.0 0.0 0.00 0.00 0.00 95 1013.2
20260901092700 73 30 0.0 0.0 0.00 0.00 0.00 95 1013.3
20260901092154 73 30 0.0 0.0 0.00 0.00 0.00 95 1013.3
20260901091648 73 30 0.0 0.0 0.00 0.00 0.00 95 1013.3
20260901091142 73 31 0.0 0.0 0.00 0.00 0.00 95 1013.3
20260901090635 73 30 0.0 0.0 0.00 0.00 0.00 95 1013.3
20260901090130 73 30 0.0 0.0 0.00 0.00 0.00 95 1013.3
20260901085624 73 30 0.0 0.0 0.00 0.00 0.00 94 1013.2
20260901085118 73 31 0.0 0.0 0.00 0.00 0.00 94 1013.3
20260901084841 73 30 0.0 0.0 0.00 0.00 0.00 94 1013.3
20260901084106 73 30 0.0 0.0 0.00 0.00 0.00 94 1013.3
20260901083600 73 30 0.0 0.0 0.00 0.00 0.00 94 1013.2
20260901083054 73 30 0.0 0.0 0.00 0.00 0.00 94 1013.3
20260901082548 73 30 0.0 0.0 0.00 0.00 0.00 94 1013.3
20260901082042 73 30 0.0 0.0 0.00 0.00 0.00 94 1013.3
20260901081535 73 30 0.0 0.0 0.00 0.00 0.00 94 1013.3
20260901081253 73 31 0.0 0.0 0.00 0.00 0.00 94 1013.3
20260901080751 73 31 0.0 0.0 0.00 0.00 0.00 94 1013.4
20260901080017 73 31 0.0 0.0 0.00 0.00 0.00 93 1013.4
20260901075512 73 30 0.0 0.0 0.00 0.00 0.00 93 1013.4
20260901075006 73 30 0.0 0.0 0.00 0.00 0.00 94 1013.3
20260901074950 73 31 0.0 0.0 0.00 0.00 0.00 94 1013.4
20260901073954 73 31 0.0 0.0 0.00 0.00 0.00 94 1013.3
20260901073448 73 30 0.0 0.0 0.00 0.00 0.00 93 1013.4
20260901072942 74 31 0.0 0.0 0.00 0.00 0.00 93 1013.4
20260901072700 74 30 0.0 0.0 0.00 0.00 0.00 93 1013.3
20260901071930 74 30 0.0 0.0 0.00 0.00 0.00 93 1013.5
20260901071424 74 31 0.0 0.0 0.00 0.00 0.00 93 1013.5
20260901071140 74 30 0.0 0.0 0.00 0.00 0.00 93 1013.6
20260901070412 74 30 0.0 0.0 0.00 0.00 0.00 93 1013.7
20260901065906 74 31 0.0 0.0 0.00 0.00 0.00 93 1013.7
20260901065400 74 31 0.0 0.0 0.00 0.00 0.00 92 1013.7
20260901065112 74 31 0.0 0.0 0.00 0.00 0.00 92 1013.8
20260901064348 74 31 0.0 0.0 0.00 0.00 0.00 92 1013.8
20260901063842 74 30 0.0 0.0 0.00 0.00 0.00 92 1013.9
20260901063602 74 30 0.0 0.0 0.00 0.00 0.00 92 1013.9
20260901062842 74 31 0.0 0.0 0.00 0.00 0.00 92 1013.9
20260901062342 74 31 0.0 0.0 0.00 0.00 0.00 92 1013.9
20260901061840 75 31 0.0 0.0 0.00 0.00 0.00 91 1014.0
20260901061338 75 30 0.0 0.0 0.00 0.00 0.00 91 1014.0
20260901060836 75 30 0.0 0.0 0.00 0.00 0.00 91 1014.0
20260901060341 75 31 0.0 0.0 0.00 0.00 0.00 91 1014.1
20260901060106 75 30 0.0 0.0 0.00 0.00 0.00 91 1014.1
20260901055558 75 30 0.0 0.0 0.00 0.00 0.00 91 1014.1
20260901054836 75 31 0.0 0.0 0.00 0.00 0.00 91 1014.3
20260901054334 75 31 0.0 0.0 0.00 0.00 0.00 91 1014.2
20260901053831 75 30 0.0 0.0 0.00 0.00 0.00 90 1014.2
20260901053331 75 30 0.0 0.0 0.00 0.00 0.00 90 1014.3
20260901052830 75 30 0.0 0.0 0.00 0.00 0.00 90 1014.3
20260901052332 75 31 0.0 0.0 0.00 0.00 0.00 90 1014.4
20260901051830 75 31 0.0 0.0 0.00 0.00 0.00 89 1014.4
20260901051552 75 31 0.0 0.0 0.00 0.00 0.00 89 1014.4
20260901050835 75 30 0.0 0.0 0.00 0.00 0.00 89 1014.5
20260901050329 76 30 0.0 0.0 0.00 0.00 0.00 89 1014.5
20260901045827 76 30 0.0 0.0 0.00 0.00 0.00 88 1014.5
20260901045324 76 31 0.0 0.0 0.00 0.00 0.00 88 1014.6
20260901044825 76 30 0.0 0.0 0.00 0.00 0.00 88 1014.6
20260901044547 76 31 0.0 0.0 0.00 0.00 0.00 88 1014.6
20260901043825 76 30 0.0 0.0 0.00 0.00 0.00 88 1014.6
20260901043325 76 30 0.0 0.0 0.00 0.00 0.00 88 1014.6
20260901042823 76 30 0.0 0.0 0.00 0.00 0.00 87 1014.7
20260901042323 76 30 0.0 0.0 0.00 0.00 0.00 87 1014.6
20260901041824 76 31 0.0 0.0 0.00 0.00 0.00 87 1014.6
20260901041323 77 31 0.0 0.0 0.00 0.00 0.00 87 1014.5
20260901040824 77 31 0.0 0.0 0.00 0.00 0.00 87 1014.5
20260901040321 77 30 0.0 0.0 0.00 0.00 0.00 87 1014.4
20260901035822 77 31 0.0 0.0 0.00 0.00 0.00 87 1014.3
20260901035316 77 31 0.0 0.0 0.00 0.00 0.00 86 1014.4
20260901034811 77 31 0.0 0.0 0.00 0.00 0.00 86 1014.4
20260901034753 77 30 0.0 0.0 0.00 0.00 0.00 86 1014.4
20260901033758 78 31 0.0 0.0 0.00 0.00 0.00 85 1014.4
20260901033252 78 30 0.0 0.0 0.00 0.00 0.00 84 1014.3
20260901033008 78 31 0.0 0.0 0.00 0.00 0.00 84 1014.3
20260901032240 78 31 0.0 0.0 0.00 0.00 0.00 85 1014.3
20260901031733 78 31 0.0 0.0 0.00 0.00 0.00 84 1014.2
20260901031228 78 30 0.0 0.0 0.00 0.00 0.00 84 1014.3
20260901030721 78 30 0.0 0.0 0.00 0.00 0.00 83 1014.4
20260901030216 79 30 0.0 0.0 0.00 0.00 0.00 84 1014.4
20260901025716 79 31 0.0 0.0 0.00 0.00 0.00 83 1014.4
20260901025216 79 31 0.0 0.0 0.00 0.00 0.00 83 1014.4
20260901024718 79 31 0.0 0.0 0.00 0.00 0.00 82 1014.3
20260901024215 79 31 0.0 0.0 0.00 0.00 0.00 82 1014.3
20260901023715 80 30 0.0 0.0 0.00 0.00 0.00 82 1014.3
20260901023702 80 30 0.0 0.0 0.00 0.00 0.00 82 1014.3
20260901022716 80 31 0.0 0.0 0.00 0.00 0.00 82 1014.3
20260901022658 80 30 0.0 0.0 0.00 0.00 0.00 81 1014.4
20260901022308 80 30 0.0 0.0 0.00 0.00 0.00 81 1014.3
20260901021216 80 31 0.0 0.0 0.00 0.00 0.00 81 1014.5
20260901020940 80 30 0.0 0.0 0.00 0.00 0.00 81 1014.5
20260901020216 80 30 0.0 0.0 0.00 0.00 0.00 80 1014.5
20260901015951 80 31 0.0 0.0 0.00 0.00 0.00 80 1014.5
20260901015214 81 31 0.0 0.0 0.00 0.00 0.00 80 1014.6
20260901014713 81 30 0.0 0.0 0.00 0.00 0.00 80 1014.5
20260901014435 81 30 0.0 0.0 0.00 0.00 0.00 80 1014.5
20260901013714 81 30 0.0 0.0 0.00 0.00 0.00 80 1014.5
20260901013208 81 30 0.0 0.0 0.00 0.00 0.00 80 1014.4
20260901012702 81 30 0.0 0.0 0.00 0.00 0.00 80 1014.5
20260901012156 81 31 0.0 0.0 0.00 0.00 0.00 80 1014.4
20260901011650 81 31 0.0 0.0 0.00 0.00 0.00 79 1014.3
20260901011144 81 30 0.0 0.0 0.00 0.00 0.00 79 1014.3
20260901010637 81 30 0.0 1.0 0.00 0.00 0.00 79 1014.3
20260901010132 81 30 0.0 1.0 0.00 0.00 0.00 78 1014.2
20260901005626 81 30 0.0 0.0 0.00 0.00 0.00 78 1014.2
20260901005119 81 30 0.0 0.0 0.00 0.00 0.00 78 1014.2
20260901004614 81 30 0.0 0.0 0.00 0.00 0.00 78 1014.2
20260901004107 81 30 0.0 0.0 0.00 0.00 0.00 78 1014.3
20260901003602 81 30 0.0 0.0 0.00 0.00 0.00 78 1014.3
20260901003056 81 30 0.0 0.0 0.00 0.00 0.00 78 1014.3
20260901002550 81 30 0.0 0.0 0.00 0.00 0.00 78 1014.2
20260901002044 81 30 0.0 0.0 0.00 0.00 0.00 77 1014.1
20260901001537 81 30 0.0 0.0 0.00 0.00 0.00 77 1014.1
20260901001251 82 30 0.0 0.0 0.00 0.00 0.00 77 1014.0
20260901000526 82 30 0.0 0.0 0.00 0.00 0.00 76 1013.9
20260901000020 82 30 0.0 0.0 0.00 0.00 0.00 76 1013.9
20260831235514 83 30 0.0 0.0 0.00 0.00 0.00 76 1013.8
20260831235008 83 30 0.0 0.0 0.00 0.00 0.00 75 1013.8
20260831234508 83 30 0.0 0.0 0.00 0.00 0.00 75 1013.9
20260831234005 83 30 0.0 0.0 0.00 0.00 0.00 74 1013.9
20260831233504 83 30 0.0 0.0 0.00 0.00 0.00 74 1013.9
20260831233006 84 30 0.0 0.0 0.00 0.00 0.00 73 1013.9
20260831232502 84 30 0.0 0.0 0.00 0.00 0.00 72 1013.9
20260831232004 84 30 0.0 0.0 0.00 0.00 0.00 72 1013.8
20260831231502 85 30 0.0 0.0 0.00 0.00 0.00 72 1013.8
20260831231000 85 30 0.0 0.0 0.00 0.00 0.00 71 1013.8
20260831230504 85 30 0.0 0.0 0.00 0.00 0.00 71 1013.7
20260831230232 86 30 0.0 0.0 0.00 0.00 0.00 70 1013.7
20260831225725 86 30 0.0 0.0 0.00 0.00 0.00 69 1013.7
20260831225222 87 30 0.0 0.0 0.00 0.00 0.00 67 1013.6
20260831224723 87 30 0.0 0.0 0.00 0.00 0.00 67 1013.7
20260831223959 87 30 0.0 0.0 0.00 0.00 0.00 67 1013.6
20260831223501 87 30 0.0 2.0 0.00 0.00 0.00 67 1013.7
20260831222957 88 30 0.0 2.0 0.00 0.00 0.00 66 1013.7
20260831222458 88 33 0.0 0.0 0.00 0.00 0.00 66 1013.8
20260831221956 88 32 0.0 0.0 0.00 0.00 0.00 66 1013.8
20260831221457 88 33 0.0 0.0 0.00 0.00 0.00 65 1013.8
20260831220958 89 33 0.0 0.0 0.00 0.00 0.00 64 1013.8
20260831220457 89 32 0.0 1.0 0.00 0.00 0.00 63 1013.8
20260831220434 89 33 0.0 1.0 0.00 0.00 0.00 61 1013.7
20260831215458 90 32 0.0 1.0 0.00 0.00 0.00 59 1013.7
20260831214956 90 32 0.0 1.0 0.00 0.00 0.00 59 1013.7
20260831214721 91 32 0.0 1.0 0.00 0.00 0.00 57 1013.7
20260831213957 92 33 0.0 1.0 0.00 0.00 0.00 58 1013.6
20260831213716 92 32 0.0 1.0 0.00 0.00 0.00 57 1013.6
20260831212956 92 33 0.0 1.0 0.00 0.00 0.00 55 1013.7
20260831212456 93 32 0.0 2.0 0.00 0.00 0.00 54 1013.6
20260831211957 93 33 0.0 2.0 0.00 0.00 0.00 56 1013.7
20260831211451 93 41 0.0 1.0 0.00 0.00 0.00 55 1013.6
20260831211205 93 44 1.0 2.0 0.00 0.00 0.00 56 1013.6
20260831210439 93 31 1.0 2.0 0.00 0.00 0.00 56 1013.6
20260831205933 93 31 1.0 3.0 0.00 0.00 0.00 56 1013.6
20260831205427 94 32 0.0 3.0 0.00 0.00 0.00 56 1013.6
20260831204921 94 238 0.0 1.0 0.00 0.00 0.00 55 1013.6
20260831204636 94 236 0.0 1.0 0.00 0.00 0.00 53 1013.6
20260831203909 94 264 0.0 1.0 0.00 0.00 0.00 51 1013.7
20260831203637 94 184 1.0 3.0 0.00 0.00 0.00 50 1013.7
20260831202857 95 165 1.0 3.0 0.00 0.00 0.00 51 1013.7
20260831202619 96 35 0.0 3.0 0.00 0.00 0.00 52 1013.6
20260831202100 95 25 1.0 3.0 0.00 0.00 0.00 50 1013.6
20260831201339 96 40 0.0 2.0 0.00 0.00 0.00 50 1013.7
20260831200833 96 27 0.0 2.0 0.00 0.00 0.00 52 1013.7
20260831200326 96 217 0.0 2.0 0.00 0.00 0.00 51 1013.7
20260831195821 95 32 1.0 4.0 0.00 0.00 0.00 51 1013.8
20260831195315 96 32 1.0 4.0 0.00 0.00 0.00 50 1013.8
20260831195027 96 204 1.0 5.0 0.00 0.00 0.00 49 1013.8
20260831194303 96 32 1.0 5.0 0.00 0.00 0.00 51 1013.8
20260831193756 96 189 1.0 4.0 0.00 0.00 0.00 49 1013.8
20260831193512 95 153 1.0 4.0 0.00 0.00 0.00 51 1013.9
20260831192745 94 34 1.0 5.0 0.00 0.00 0.00 56 1013.9
20260831192239 94 23 1.0 5.0 0.00 0.00 0.00 53 1013.9
20260831191954 95 269 1.0 3.0 0.00 0.00 0.00 53 1014.0
20260831191227 95 30 0.0 3.0 0.00 0.00 0.00 53 1014.0
20260831190721 94 36 1.0 3.0 0.00 0.00 0.00 54 1014.1
20260831190215 94 24 1.0 3.0 0.00 0.00 0.00 53 1014.2
20260831185937 94 35 1.0 3.0 0.00 0.00 0.00 51 1014.2
20260831185203 95 27 1.0 3.0 0.00 0.00 0.00 51 1014.3
20260831184657 95 38 0.0 3.0 0.00 0.00 0.00 53 1014.3
20260831184151 94 29 0.0 3.0 0.00 0.00 0.00 54 1014.3
20260831183645 94 28 1.0 4.0 0.00 0.00 0.00 54 1014.3
20260831183139 94 41 1.0 4.0 0.00 0.00 0.00 54 1014.4
20260831182850 94 222 0.0 4.0 0.00 0.00 0.00 53 1014.4
20260831182127 94 39 1.0 3.0 0.00 0.00 0.00 55 1014.4
20260831182104 94 34 1.0 3.0 0.00 0.00 0.00 54 1014.5
20260831181115 94 51 1.0 3.0 0.00 0.00 0.00 54 1014.6
20260831180609 94 174 1.0 3.0 0.00 0.00 0.00 54 1014.6
20260831175558 94 101 1.0 2.0 0.00 0.00 0.00 55 1014.6
20260831175058 94 205 0.0 2.0 0.00 0.00 0.00 56 1014.6
20260831174557 93 40 0.0 3.0 0.00 0.00 0.00 57 1014.7
20260831174054 93 218 0.0 3.0 0.00 0.00 0.00 56 1014.7
20260831173554 93 61 0.0 1.0 0.00 0.00 0.00 57 1014.8
20260831173055 93 50 1.0 4.0 0.00 0.00 0.00 58 1014.8
20260831172552 92 63 1.0 4.0 0.00 0.00 0.00 58 1014.9
20260831172052 93 46 0.0 4.0 0.00 0.00 0.00 59 1014.9
20260831171814 92 305 0.0 2.0 0.00 0.00 0.00 60 1014.9
20260831171050 92 48 0.0 2.0 0.00 0.00 0.00 61 1014.9
20260831170550 92 54 0.0 2.0 0.00 0.00 0.00 61 1014.9
20260831170305 92 188 0.0 3.0 0.00 0.00 0.00 63 1014.9
20260831165547 91 191 0.0 3.0 0.00 0.00 0.00 63 1014.8
20260831165047 91 70 0.0 2.0 0.00 0.00 0.00 65 1014.9
20260831164546 90 240 0.0 3.0 0.00 0.00 0.00 63 1015.1
20260831164046 90 101 1.0 3.0 0.00 0.00 0.00 65 1015.1
20260831163545 89 51 1.0 3.0 0.00 0.00 0.00 66 1015.1
20260831163041 89 323 0.0 3.0 0.00 0.00 0.00 66 1015.2
20260831162542 89 101 1.0 2.0 0.00 0.00 0.00 65 1015.2
20260831162039 88 213 1.0 2.0 0.00 0.00 0.00 67 1015.2
20260831161533 87 155 1.0 2.0 0.00 0.00 0.00 67 1015.4
20260831161027 87 37 0.0 2.0 0.00 0.00 0.00 69 1015.3
20260831160521 86 177 0.0 1.0 0.00 0.00 0.00 69 1015.3
20260831160503 86 34 1.0 2.0 0.00 0.00 0.00 71 1015.3
20260831155509 85 34 1.0 3.0 0.00 0.00 0.00 70 1015.4
20260831155003 85 34 0.0 3.0 0.00 0.00 0.00 74 1015.3
20260831154457 85 46 0.0 2.0 0.00 0.00 0.00 75 1015.4
20260831153951 84 29 0.0 2.0 0.00 0.00 0.00 76 1015.4
20260831153445 84 29 0.0 2.0 0.00 0.00 0.00 74 1015.3
20260831152939 83 287 0.0 1.0 0.00 0.00 0.00 76 1015.3